| time (UTC) | temp F | wind direction | speed MPH | gust MPH | rain 1hr in | rain 24hr in | rain mn in | humidity % | barometer mb |
| 20260902004554 | 95 | 360 | 2.0 | 8.0 | 0.00 | 0.00 | 0.00 | 37 | 1009.8 |
| 20260902003053 | 96 | 155 | 2.0 | 6.0 | 0.00 | 0.00 | 0.00 | 36 | 1009.7 |
| 20260902001551 | 97 | 149 | 1.0 | 7.0 | 0.00 | 0.00 | 0.00 | 35 | 1009.8 |
| 20260902000051 | 97 | 132 | 3.0 | 10.0 | 0.00 | 0.00 | 0.00 | 34 | 1009.8 |
| 20260901234555 | 98 | 117 | 3.0 | 9.0 | 0.00 | 0.00 | 0.00 | 34 | 1009.9 |
| 20260901233051 | 98 | 165 | 1.0 | 8.0 | 0.00 | 0.00 | 0.00 | 34 | 1009.9 |
| 20260901231548 | 99 | 144 | 2.0 | 7.0 | 0.00 | 0.00 | 0.00 | 33 | 1010.1 |
| 20260901230047 | 99 | 140 | 3.0 | 5.0 | 0.00 | 0.00 | 0.00 | 33 | 1010.1 |
| 20260901224555 | 99 | 139 | 4.0 | 10.0 | 0.00 | 0.00 | 0.00 | 32 | 1010.1 |
| 20260901223045 | 99 | 155 | 3.0 | 8.0 | 0.00 | 0.00 | 0.00 | 32 | 1010.1 |
| 20260901221546 | 99 | 167 | 4.0 | 8.0 | 0.00 | 0.00 | 0.00 | 31 | 1010.2 |
| 20260901220043 | 98 | 191 | 2.0 | 6.0 | 0.00 | 0.00 | 0.00 | 31 | 1010.2 |
| 20260901214548 | 100 | 134 | 2.0 | 9.0 | 0.00 | 0.00 | 0.00 | 31 | 1010.3 |
| 20260901213044 | 99 | 259 | 3.0 | 8.0 | 0.00 | 0.00 | 0.00 | 31 | 1010.4 |
| 20260901211538 | 99 | 208 | 3.0 | 7.0 | 0.00 | 0.00 | 0.00 | 32 | 1010.7 |
| 20260901210037 | 101 | 163 | 3.0 | 7.0 | 0.00 | 0.00 | 0.00 | 30 | 1010.8 |
| 20260901204532 | 100 | 227 | 2.0 | 7.0 | 0.00 | 0.00 | 0.00 | 32 | 1011.0 |
| 20260901203029 | 99 | 132 | 3.0 | 15.0 | 0.00 | 0.00 | 0.00 | 32 | 1011.1 |
| 20260901201526 | 98 | 169 | 3.0 | 7.0 | 0.00 | 0.00 | 0.00 | 33 | 1011.5 |
| 20260901200027 | 99 | 289 | 4.0 | 11.0 | 0.00 | 0.00 | 0.00 | 32 | 1011.6 |
| 20260901194522 | 99 | 301 | 4.0 | 12.0 | 0.00 | 0.00 | 0.00 | 32 | 1011.8 |
| 20260901193020 | 98 | 235 | 2.0 | 8.0 | 0.00 | 0.00 | 0.00 | 33 | 1012.0 |
| 20260901191519 | 99 | 156 | 3.0 | 9.0 | 0.00 | 0.00 | 0.00 | 32 | 1012.1 |
| 20260901190022 | 99 | 171 | 2.0 | 9.0 | 0.00 | 0.00 | 0.00 | 32 | 1012.2 |
| 20260901184515 | 99 | 236 | 3.0 | 10.0 | 0.00 | 0.00 | 0.00 | 31 | 1012.5 |
| 20260901183013 | 99 | 271 | 4.0 | 14.0 | 0.00 | 0.00 | 0.00 | 32 | 1012.7 |
| 20260901181524 | 99 | 135 | 5.0 | 11.0 | 0.00 | 0.00 | 0.00 | 32 | 1012.9 |
| 20260901180009 | 98 | 125 | 2.0 | 8.0 | 0.00 | 0.00 | 0.00 | 35 | 1013.1 |
| 20260901174507 | 97 | 154 | 3.0 | 9.0 | 0.00 | 0.00 | 0.00 | 35 | 1013.3 |
| 20260901173013 | 97 | 232 | 2.0 | 7.0 | 0.00 | 0.00 | 0.00 | 36 | 1013.5 |
| 20260901171501 | 96 | 166 | 5.0 | 9.0 | 0.00 | 0.00 | 0.00 | 36 | 1013.6 |
| 20260901170106 | 95 | 263 | 3.0 | 9.0 | 0.00 | 0.00 | 0.00 | 39 | 1013.7 |
| 20260901164601 | 96 | 172 | 3.0 | 9.0 | 0.00 | 0.00 | 0.00 | 38 | 1013.8 |
| 20260901163059 | 95 | 236 | 4.0 | 10.0 | 0.00 | 0.00 | 0.00 | 38 | 1013.9 |
| 20260901161554 | 94 | 159 | 2.0 | 8.0 | 0.00 | 0.00 | 0.00 | 41 | 1014.0 |
| 20260901160055 | 93 | 267 | 2.0 | 10.0 | 0.00 | 0.00 | 0.00 | 41 | 1014.0 |
| 20260901154550 | 92 | 226 | 2.0 | 10.0 | 0.00 | 0.00 | 0.00 | 43 | 1013.9 |
| 20260901153048 | 91 | 245 | 3.0 | 8.0 | 0.00 | 0.00 | 0.00 | 44 | 1014.0 |
| 20260901151544 | 90 | 173 | 2.0 | 9.0 | 0.00 | 0.00 | 0.00 | 46 | 1013.9 |
| 20260901150041 | 89 | 186 | 3.0 | 9.0 | 0.00 | 0.00 | 0.00 | 47 | 1014.0 |
| 20260901144538 | 88 | 217 | 3.0 | 8.0 | 0.00 | 0.00 | 0.00 | 49 | 1014.1 |
| 20260901143034 | 87 | 168 | 3.0 | 8.0 | 0.00 | 0.00 | 0.00 | 51 | 1014.2 |
| 20260901141530 | 85 | 202 | 2.0 | 7.0 | 0.00 | 0.00 | 0.00 | 52 | 1014.2 |
| 20260901140032 | 84 | 217 | 2.0 | 7.0 | 0.00 | 0.00 | 0.00 | 54 | 1014.4 |
| 20260901134534 | 83 | 194 | 2.0 | 6.0 | 0.00 | 0.00 | 0.00 | 55 | 1014.3 |
| 20260901133026 | 82 | 166 | 3.0 | 7.0 | 0.00 | 0.00 | 0.00 | 56 | 1014.2 |
| 20260901131525 | 80 | 182 | 1.0 | 7.0 | 0.00 | 0.00 | 0.00 | 58 | 1014.0 |
| 20260901130022 | 79 | 165 | 0.0 | 5.0 | 0.00 | 0.00 | 0.00 | 59 | 1013.9 |
| 20260901124522 | 79 | 360 | 1.0 | 5.0 | 0.00 | 0.00 | 0.00 | 60 | 1013.9 |
| 20260901123026 | 78 | 360 | 1.0 | 6.0 | 0.00 | 0.00 | 0.00 | 60 | 1013.7 |
| 20260901121519 | 79 | 360 | 0.0 | 3.0 | 0.00 | 0.00 | 0.00 | 59 | 1013.7 |
| 20260901120018 | 79 | 360 | 0.0 | 3.0 | 0.00 | 0.00 | 0.00 | 58 | 1013.3 |
| 20260901114514 | 79 | 360 | 1.0 | 4.0 | 0.00 | 0.00 | 0.00 | 58 | 1013.1 |
| 20260901113013 | 79 | 360 | 1.0 | 4.0 | 0.00 | 0.00 | 0.00 | 58 | 1013.0 |
| 20260901111511 | 79 | 360 | 1.0 | 5.0 | 0.00 | 0.00 | 0.00 | 57 | 1013.1 |
| 20260901110008 | 78 | 360 | 1.0 | 4.0 | 0.00 | 0.00 | 0.00 | 58 | 1013.0 |
| 20260901104506 | 78 | 360 | 2.0 | 5.0 | 0.00 | 0.00 | 0.00 | 58 | 1013.0 |
| 20260901103005 | 78 | 360 | 2.0 | 6.0 | 0.00 | 0.00 | 0.00 | 58 | 1012.9 |
| 20260901101512 | 78 | 360 | 0.0 | 5.0 | 0.00 | 0.00 | 0.00 | 57 | 1012.8 |
| 20260901100002 | 78 | 360 | 2.0 | 6.0 | 0.00 | 0.00 | 0.00 | 57 | 1012.8 |
| 20260901094502 | 78 | 360 | 2.0 | 5.0 | 0.00 | 0.00 | 0.00 | 57 | 1012.9 |
| 20260901093109 | 78 | 360 | 1.0 | 5.0 | 0.00 | 0.00 | 0.00 | 57 | 1012.8 |
| 20260901091612 | 79 | 360 | 1.0 | 4.0 | 0.00 | 0.00 | 0.00 | 57 | 1012.7 |
| 20260901090054 | 79 | 360 | 1.0 | 5.0 | 0.00 | 0.00 | 0.00 | 54 | 1012.6 |
| 20260901084556 | 80 | 360 | 1.0 | 5.0 | 0.00 | 0.00 | 0.00 | 54 | 1012.4 |
| 20260901083057 | 80 | 360 | 1.0 | 4.0 | 0.00 | 0.00 | 0.00 | 54 | 1012.4 |
| 20260901081552 | 80 | 360 | 0.0 | 2.0 | 0.00 | 0.00 | 0.00 | 54 | 1012.3 |
| 20260901080054 | 80 | 360 | 0.0 | 4.0 | 0.00 | 0.00 | 0.00 | 53 | 1012.3 |
| 20260901074549 | 80 | 360 | 0.0 | 3.0 | 0.00 | 0.00 | 0.00 | 53 | 1012.4 |
| 20260901073050 | 80 | 360 | 1.0 | 3.0 | 0.00 | 0.00 | 0.00 | 53 | 1012.4 |
| 20260901071546 | 81 | 360 | 1.0 | 3.0 | 0.00 | 0.00 | 0.00 | 52 | 1012.3 |
| 20260901070051 | 81 | 360 | 1.0 | 3.0 | 0.00 | 0.00 | 0.00 | 51 | 1012.4 |
| 20260901064545 | 82 | 360 | 0.0 | 3.0 | 0.00 | 0.00 | 0.00 | 51 | 1012.5 |
| 20260901063042 | 82 | 360 | 0.0 | 2.0 | 0.00 | 0.00 | 0.00 | 50 | 1012.5 |
| 20260901061539 | 82 | 360 | 0.0 | 2.0 | 0.00 | 0.00 | 0.00 | 49 | 1012.4 |
| 20260901060037 | 83 | 360 | 0.0 | 2.0 | 0.00 | 0.00 | 0.00 | 48 | 1012.5 |
| 20260901054536 | 83 | 360 | 1.0 | 4.0 | 0.00 | 0.00 | 0.00 | 48 | 1012.4 |
| 20260901053033 | 84 | 360 | 0.0 | 2.0 | 0.00 | 0.00 | 0.00 | 48 | 1012.4 |
| 20260901051531 | 84 | 360 | 1.0 | 3.0 | 0.00 | 0.00 | 0.00 | 47 | 1012.2 |
| 20260901050030 | 85 | 360 | 1.0 | 5.0 | 0.00 | 0.00 | 0.00 | 46 | 1012.2 |
| 20260901044530 | 85 | 360 | 0.0 | 3.0 | 0.00 | 0.00 | 0.00 | 46 | 1012.2 |
| 20260901043029 | 85 | 360 | 1.0 | 3.0 | 0.00 | 0.00 | 0.00 | 46 | 1012.1 |
| 20260901041528 | 86 | 360 | 2.0 | 5.0 | 0.00 | 0.00 | 0.00 | 45 | 1012.0 |
| 20260901040035 | 86 | 360 | 1.0 | 6.0 | 0.00 | 0.00 | 0.00 | 44 | 1012.0 |
| 20260901034526 | 87 | 360 | 2.0 | 8.0 | 0.00 | 0.00 | 0.00 | 43 | 1011.9 |
| 20260901033027 | 88 | 360 | 2.0 | 8.0 | 0.00 | 0.00 | 0.00 | 42 | 1011.8 |
| 20260901031526 | 88 | 360 | 3.0 | 9.0 | 0.00 | 0.00 | 0.00 | 42 | 1011.7 |
| 20260901030025 | 88 | 360 | 2.0 | 6.0 | 0.00 | 0.00 | 0.00 | 42 | 1011.5 |
| 20260901024529 | 89 | 360 | 2.0 | 6.0 | 0.00 | 0.00 | 0.00 | 42 | 1011.3 |
| 20260901023024 | 89 | 360 | 2.0 | 6.0 | 0.00 | 0.00 | 0.00 | 41 | 1011.0 |
| 20260901021523 | 90 | 360 | 1.0 | 6.0 | 0.00 | 0.00 | 0.00 | 40 | 1010.9 |
| 20260901020022 | 90 | 360 | 1.0 | 8.0 | 0.00 | 0.00 | 0.00 | 40 | 1010.6 |
| 20260901014522 | 91 | 360 | 2.0 | 6.0 | 0.00 | 0.00 | 0.00 | 39 | 1010.5 |
| 20260901013022 | 91 | 360 | 1.0 | 4.0 | 0.00 | 0.00 | 0.00 | 37 | 1010.3 |
| 20260901011522 | 93 | 360 | 2.0 | 5.0 | 0.00 | 0.00 | 0.00 | 36 | 1010.2 |
| 20260901010022 | 94 | 360 | 2.0 | 6.0 | 0.00 | 0.00 | 0.00 | 35 | 1010.1 |